Showing default

SATORO-T3, 64589

Orbit data source: Space-Track

SATORO-T3, 64589 is a payload satellite owned by Satoro (SG) in SSO that was launched on Mon, 23 Jun 2025 UTC via an FALCON 9 launch vehicle from the Air Force Western Test Range (AFWTR). Payload-class satellites include a variety of spacecraft equipped with specific instruments for various scientific and technological missions. These include communications satellites like Starlink; space stations such as the ISS; scientific satellites like the Hubble; Earth observation satellites from companies like Planet Labs, Umbra, and HawkEye 360; GPS; miniature CubeSats for education and research; and military/defense satellites.

Loading next visibility...
Identifier
64589, 2025-135BP
Orbit
SSO
Country
Flag of UnknownUnknown / SING
Related business
Manufacturer
Satoro
Mission
Operational Commercial Technology
Bus & Motor
CUBESAT 3U, Unknown motor
Mass
4 kg wet, 4 kg dry
Launch date (UTC)
2025-06-23 (8 months ago)
Launch vehicle
FALCON 9
Launch site
Air Force Western Test Range (AFWTR)
Object type
Payload
Rocket body
Debris
Shape & HBR
Box, 0.1 m
Radar Cross Section
0.035 m², Small (<0.1 m²)

Expand to show TLE details & history
Last TLE update: 10 hours ago

TLE from 10 hours ago
0 SATORO-T3
1 64589U 25135BP  26062.41594299  .00003116  00000-0  29869-3 0  9995
2 64589  97.7589 178.1384 0004095 341.9511  18.1563 14.93859418 38112
Epoch: 2026-03-03T09:58Z
TLE epoch observation values (Epoch: 2026-03-03T09:58:57.474Z)
Latitude
-0°
Longitude
-132.7964°
Altitude
586.25 km
Speed
7.569 km/s
True Right ascension
11h 52m 33s
True Declination
0° 00' 00"
Sunlit
Object was in full shadow at epoch
Visualization orbit readout
Latitude
Unknown
Longitude
Unknown
Altitude
Unknown
Speed
Unknown
Apparent Right ascension
Unknown
Apparent Declination
Unknown
Sunlit
N/A
Visualization observer readout
Local Sidereal Time
23:43:37
Azimuth
Unknown
Elevation
Unknown
Doppler factor
Unknown
Orbital elements
Apogee altitude
585.782 km
Perigee altitude
580.081 km
Semi-major axis
6,961.068 km
Eccentricity
0.00041
Inclination
97.7589°
RAAN
178.1384°
Arg. of periapsis
341.9511°
True anomaly
18.17093°
Mean anomaly
18.1563°
Eccentric anomaly
18.16361°
Mean motion
3.73705 °/min
Orbital period
96.33 mins
BSTAR
0.00029869
Loading maneuver chart data...
Computing Atmospheric mass density...
Loading historical data...
Loading historical data...
Loading historical data...
Loading historical data...
Loading historical data...
Loading historical data...
Loading historical data...

Documentation

Showing up to 5 results
|